Flag for Syria Weather past 2 weeks in Damascus, Syria

Now
97 °F

Sunny.


Feels Like: 92 °F
Forecast: 53 / 96 °F
Wind: 6 mph from Southwest

Location: Damascus Int. Airport

Current Time: Jul 6, 2015 at 1:19:41 PM

Latest Report: Jul 6, 2015 at 1:00 PM


Visibility: 10 mi

Pressure: 29.86 "Hg (27.67 "Hg at 689m altitude)

Humidity: 13%

Dew point: 37 °F

Location of DamascusLocation

Historic Weather in Damascus — Graph

°F

Damascus temperature yesterday

Maximum temperature yesterday: 97 °F (at 2:00 PM)
Minimum temperature yesterday: 61 °F (at 6:00 AM)
Average temperature yesterday: 80 °F

Past Weeks' High & Low Weather Summary

 TemperatureHumidityPressure
High104 °F (Jul 2, 5:00 PM)94% (Jul 3, 5:00 AM)30.04 "Hg (Jul 3, 5:00 AM)
Low59 °F (Jun 22, 6:00 AM)7% (Jul 5, 5:00 PM)29.71 "Hg (Jun 26, 12:00 PM)
Average77 °F47%29.86 "Hg
* Reported Jun 21 12:00 Noon — Jul 6 12:00 Noon, Damascus, Weather by CustomWeather, © 2015

Note: Actual official high and low records may vary slightly from our data, if they occured in-between our weather recording intervals... More about our weather records

Advertising

Damascus weather history for previous 24 hours

 ConditionsComfort  
Time TempWeatherWind HumidityBarometerVisibility
12:00 PM
Mon, Jul 6
93 °FSunny.8 mph19%29.89 "Hg10 mi
11:00 AM88 °FSunny.8 mph25%29.92 "Hg10 mi
10:00 AM84 °FSunny.6 mph31%29.92 "Hg10 mi
9:00 AM77 °FSunny.2 mph47%29.92 "Hg10 mi
8:00 AM72 °FSunny.2 mph61%29.92 "Hg10 mi
7:00 AM68 °FSunny.No wind64%29.92 "Hg10 mi
6:00 AM63 °FClear.No wind73%29.92 "Hg10 mi
5:00 AM66 °FClear.5 mph64%29.89 "Hg10 mi
4:00 AM66 °FClear.5 mph64%29.89 "Hg10 mi
3:00 AM66 °FClear.2 mph64%29.89 "Hg10 mi
2:00 AM70 °FClear.2 mph60%29.89 "Hg10 mi
1:00 AM72 °FClear.2 mph57%29.92 "Hg10 mi
12:00 AM73 °FClear.5 mph50%29.92 "Hg10 mi
11:00 PM
Sun, Jul 5
73 °FClear.5 mph27%29.92 "Hg10 mi
10:00 PM77 °FClear.5 mph24%29.92 "Hg10 mi
9:00 PM82 °FClear.9 mph21%29.89 "Hg10 mi
8:00 PM88 °FSunny.12 mph13%29.89 "Hg10 mi
7:00 PM91 °FSunny.16 mph11%29.86 "Hg10 mi
6:00 PM95 °FSunny.18 mph11%29.86 "Hg10 mi
5:00 PM97 °FSunny.16 mph7%29.89 "Hg10 mi
4:00 PM97 °FSunny.16 mph12%29.86 "Hg10 mi
3:00 PM97 °FSunny.14 mph16%29.89 "Hg10 mi
2:00 PM97 °FSunny.14 mph16%29.89 "Hg10 mi
1:00 PM95 °FSunny.5 mph14%29.92 "Hg10 mi
Weather by CustomWeather, © 2015

See weather overviewHow to use our weather pages